Location: Jarocin
(51.9626°N, 17.5030°E)
Time: 17:16:19
(UTC+01:00)

ISS - Visible Passes

Search period start: 16 January 2019 00:00
Search period end: 26 January 2019 00:00
Orbit: 404 x 407 km, 51.6° (Epoch: 17 January)

Date Brightness Start Highest point End Pass type
(mag) Time Alt. Az. Time Alt. Az. Time Alt. Az.
23 Jan -1.5 18:37:04 10° SSW 18:38:06 15° S 18:38:06 15° S visible
24 Jan -1.6 17:46:13 10° SSE 17:47:48 13° SE 17:48:29 12° SE visible
24 Jan -0.9 19:20:31 10° SW 19:21:11 15° SW 19:21:11 15° SW visible
25 Jan -2.7 18:28:50 10° SW 18:31:29 32° SSE 18:31:29 32° SSE visible
